Weather History for KSLN - July, 2012

Change the Weather History Date:

Monday, July 23, 2012

  Actual Average Record
Temperature  
Mean Temperature 88 °F 82 °F  
Max Temperature 105 °F 93 °F 110 °F (1920)
Min Temperature 71 °F 70 °F 54 °F (1970)
Degree Days  
Heating Degree Days 0 0  
Month to date heating degree days 0 0  
Since 1 June heating degree days 10 7  
Since 1 July heating degree days 0 0  
Cooling Degree Days 23 16  
Month to date cooling degree days 509 367  
Year to date cooling degree days 1309 820  
Since 1 June cooling degree days 987 692  
Growing Degree Days 38 (Base 50)    
Moisture  
Dew Point 59 °F    
Average Humidity 39    
Maximum Humidity 57    
Minimum Humidity 20    
Precipitation  
Precipitation 0.00 in 0.13 in 0.88 in (2004)
Month to date precipitation 0.58 3.30  
Year to date precipitation 10.17 19.40  
Sea Level Pressure  
Sea Level Pressure 29.95 in    
Wind  
Wind Speed 10 mph (South)    
Max Wind Speed 23 mph    
Max Gust Speed 31 mph    
Visibility 10 miles    
Events      
T = Trace of Precipitation, MM = Missing Value Source: NWS Daily Summary

Daily Weather History Graph

Daily Weather History Graph

Search for Another Location

Airport or City:

Trip Planner

Search our weather history database for the weather conditions in past years. The results will help you decide how hot, cold, wet, or windy it might be!

Date:

Astronomy

Jul. 23, 2012 Rise Set
Actual Time 6:24 AM CDT 8:49 PM CDT
Civil Twilight 5:54 AM CDT 9:19 PM CDT
Nautical Twilight 5:16 AM CDT 9:56 PM CDT
Astronomical Twilight 4:34 AM CDT 10:38 PM CDT
Moon 11:13 AM CDT (7/23) 11:08 PM CDT (7/23)
Length of Visible Light 15h 25m
Length of Day
14h 24m
Waxing Crescent, 22% of the Moon is Illuminated
Jul 23
Waxing Crescent
Jul 26
First Quarter
Aug 1
Full
Aug 9
Last Quarter
Aug 17
New

Hourly Weather History & Observations

Time (CDT) Temp. Heat Index Dew Point Humidity Pressure Visibility Wind Dir Wind Speed Gust Speed Precip Events Conditions
12:53 AM 82.0 °F 82.0 °F 57.9 °F 44% 29.97 in 10.0 mi South 4.6 mph - N/A   Clear
1:53 AM 75.9 °F - 57.9 °F 54% 29.96 in 10.0 mi South 4.6 mph - N/A   Clear
2:53 AM 77.0 °F - 57.0 °F 50% 29.96 in 10.0 mi South 5.8 mph - N/A   Clear
3:53 AM 77.0 °F - 57.0 °F 50% 29.97 in 10.0 mi South 5.8 mph - N/A   Clear
4:53 AM 73.9 °F - 57.0 °F 55% 29.98 in 10.0 mi South 8.1 mph - N/A   Clear
5:53 AM 73.0 °F - 57.0 °F 57% 29.98 in 10.0 mi South 6.9 mph - N/A   Clear
6:53 AM 73.0 °F - 57.0 °F 57% 29.99 in 10.0 mi South 6.9 mph - N/A   Clear
7:53 AM 79.0 °F - 57.0 °F 47% 30.00 in 10.0 mi South 8.1 mph - N/A   Clear
8:53 AM 87.1 °F 86.7 °F 60.1 °F 40% 30.01 in 10.0 mi South 10.4 mph - N/A   Clear
9:53 AM 93.0 °F 94.2 °F 63.0 °F 37% 29.99 in 10.0 mi SSW 12.7 mph - N/A   Clear
10:53 AM 97.0 °F 98.3 °F 63.0 °F 32% 29.99 in 10.0 mi SSW 12.7 mph - N/A   Clear
11:53 AM 100.0 °F 101.8 °F 62.1 °F 29% 29.98 in 10.0 mi South 11.5 mph 23.0 mph N/A   Clear
12:53 PM 100.0 °F 101.2 °F 61.0 °F 28% 29.97 in 10.0 mi South 12.7 mph 19.6 mph N/A   Clear
1:53 PM 102.9 °F 103.0 °F 59.0 °F 23% 29.95 in 10.0 mi South 13.8 mph 23.0 mph N/A   Clear
2:53 PM 100.9 °F 100.5 °F 57.9 °F 24% 29.93 in 10.0 mi Variable 6.9 mph - N/A   Clear
3:53 PM 104.0 °F 102.9 °F 55.9 °F 20% 29.91 in 10.0 mi South 15.0 mph 28.8 mph N/A   Clear
4:53 PM 104.0 °F 104.6 °F 59.0 °F 23% 29.90 in 10.0 mi South 11.5 mph 21.9 mph N/A   Partly Cloudy
5:53 PM 102.9 °F 102.4 °F 57.0 °F 22% 29.90 in 10.0 mi South 20.7 mph 27.6 mph N/A   Partly Cloudy
6:53 PM 100.9 °F 100.5 °F 57.9 °F 24% 29.89 in 10.0 mi South 15.0 mph 23.0 mph N/A   Clear
7:53 PM 99.0 °F 98.1 °F 57.9 °F 25% 29.89 in 10.0 mi South 12.7 mph - N/A   Clear
8:53 PM 93.9 °F 92.9 °F 57.9 °F 30% 29.89 in 10.0 mi SSE 10.4 mph - N/A   Clear
9:53 PM 90.0 °F 88.8 °F 57.9 °F 34% 29.90 in 10.0 mi SSE 8.1 mph - N/A   Clear
10:53 PM 87.1 °F 86.5 °F 59.0 °F 39% 29.91 in 10.0 mi SSE 8.1 mph - N/A   Clear
11:53 PM 86.0 °F 85.7 °F 60.1 °F 41% 29.91 in 10.0 mi SSE 9.2 mph - N/A   Clear